QPF
0.00 0.00 0.00 0.00 0.00 0.00 0.00 0.00 0.00 0.00 0.00 0.00 0.00 0.00 0.00 0.00 0.00 0.00 0.00 0.00 0.00 0.01 0.00 0.00 0.00 0.00 0.01 0.01 0.01 0.01 0.01 0.01 0.01 0.01 0.01 0.00 0.00 0.01 0.03 0.04 0.04 0.04 0.04 0.04
0.00 0.00 0.00 0.00 0.00 0.00 0.00 0.00 0.00 0.00 0.00 0.00 0.00 0.00 0.00 0.00 0.00 0.00 0.00 0.00 0.00 0.00 0.00 0.00 0.00 0.00 0.01 0.01 0.01 0.01 0.01 0.01 0.01 0.01 0.02 0.01 0.01 0.00 0.01 0.04 0.04 0.04 0.04 0.05
0.00 0.00 0.00 0.00 0.00 0.00 0.00 0.00 0.00 0.00 0.00 0.00 0.00 0.00 0.00 0.00 0.00 0.00 0.00 0.00 0.00 0.00 0.00 0.00 0.01 0.01 0.01 0.01 0.01 0.01 0.02 0.02 0.02 0.02 0.02 0.02 0.02 0.01 0.00 0.02 0.04 0.04 0.04 0.05
0.00 0.00 0.00 0.00 0.00 0.00 0.00 0.00 0.00 0.00 0.00 0.00 0.00 0.00 0.00 0.00 0.00 0.00 0.00 0.00 0.00 0.00 0.00 0.00 0.01 0.01 0.01 0.01 0.01 0.01 0.01 0.02 0.02 0.02 0.02 0.02 0.02 0.01 0.01 0.01 0.03 0.03 0.04 0.04
0.00 0.00 0.00 0.00 0.00 0.00 0.00 0.00 0.00 0.00 0.00 0.00 0.00 0.00 0.00 0.00 0.00 0.00 0.00 0.00 0.00 0.00 0.00 0.00 0.00 0.01 0.01 0.01 0.01 0.01 0.01 0.01 0.01 0.02 0.02 0.02 0.01 0.01 0.01 0.01 0.02 0.04 0.04 0.04
0.00 0.00 0.00 0.00 0.00 0.00 0.00 0.00 0.00 0.00 0.01 0.01 0.00 0.00 0.00 0.00 0.00 0.00 0.00 0.00 0.00 0.00 0.00 0.00 0.00 0.01 0.01 0.01 0.01 0.01 0.01 0.00 0.01 0.01 0.01 0.02 0.02 0.01 0.01 0.01 0.02 0.02 0.04 0.04
0.00 0.00 0.00 0.00 0.00 0.00 0.01 0.01 0.01 0.02 0.02 0.01 0.00 0.00 0.01 0.01 0.00 0.00 0.00 0.00 0.00 0.00 0.00 0.00 0.00 0.00 0.00 0.01 0.01 0.01 0.01 0.00 0.00 0.01 0.01 0.01 0.01 0.01 0.01 0.01 0.01 0.01 0.03 0.05
0.00 0.00 0.00 0.00 0.00 0.00 0.00 0.01 0.01 0.01 0.01 0.00 0.00 0.01 0.02 0.01 0.00 0.00 0.00 0.00 0.00 0.00 0.00 0.00 0.00 0.00 0.00 0.00 0.01 0.01 0.01 0.01 0.00 0.00 0.00 0.00 0.00 0.00 0.00 0.01 0.01 0.01 0.01 0.03
0.00 0.00 0.00 0.00 0.00 0.00 0.01 0.01 0.01 0.01 0.01 0.01 0.01 0.01 0.01 0.01 0.00 0.00 0.00 0.01 0.01 0.00 0.00 0.00 0.00 0.00 0.00 0.00 0.00 0.00 0.01 0.01 0.01 0.01 0.00 0.00 0.00 0.00 0.00 0.00 0.01 0.01 0.01 0.02
0.01 0.01 0.00 0.00 0.00 0.00 0.00 0.01 0.01 0.02 0.01 0.01 0.00 0.00 0.01 0.01 0.00 0.00 0.00 0.01 0.00 0.00 0.00 0.00 0.00 0.00 0.00 0.00 0.00 0.00 0.00 0.00 0.01 0.01 0.01 0.00 0.00 0.00 0.00 0.00 0.01 0.01 0.01 0.01
0.01 0.01 0.01 0.00 0.00 0.00 0.01 0.01 0.02 0.02 0.02 0.01 0.01 0.00 0.01 0.00 0.00 0.00 0.00 0.01 0.00 0.00 0.00 0.00 0.00 0.00 0.00 0.00 0.00 0.00 0.00 0.00 0.00 0.00 0.01 0.01 0.00 0.00 0.00 0.00 0.01 0.01 0.01 0.01
0.01 0.02 0.01 0.01 0.00 0.00 0.00 0.01 0.01 0.02 0.02 0.02 0.01 0.01 0.01 0.00 0.00 0.01 0.01 0.01 0.01 0.00 0.00 0.00 0.00 0.00 0.00 0.00 0.00 0.00 0.00 0.00 0.00 0.00 0.00 0.00 0.00 0.00 0.00 0.01 0.01 0.01 0.01 0.01
0.02 0.02 0.02 0.01 0.00 0.00 0.01 0.00 0.01 0.01 0.02 0.02 0.01 0.01 0.01 0.01 0.02 0.02 0.02 0.02 0.01 0.01 0.01 0.00 0.00 0.00 0.00 0.00 0.00 0.00 0.00 0.00 0.00 0.00 0.00 0.00 0.01 0.01 0.00 0.01 0.01 0.01 0.01 0.01
0.03 0.02 0.01 0.01 0.01 0.01 0.01 0.00 0.01 0.02 0.03 0.01 0.01 0.01 0.01 0.01 0.01 0.02 0.02 0.01 0.01 0.00 0.00 0.00 0.00 0.00 0.00 0.00 0.00 0.00 0.00 0.00 0.00 0.00 0.00 0.00 0.01 0.00 0.00 0.00 0.01 0.01 0.01 0.01
0.03 0.03 0.01 0.01 0.01 0.01 0.01 0.01 0.01 0.02 0.02 0.01 0.01 0.01 0.01 0.01 0.01 0.01 0.01 0.01 0.00 0.01 0.00 0.00 0.00 0.00 0.00 0.00 0.00 0.00 0.00 0.00 0.00 0.00 0.00 0.00 0.00 0.00 0.00 0.00 0.01 0.01 0.01 0.01
0.03 0.03 0.02 0.01 0.01 0.01 0.01 0.01 0.01 0.01 0.01 0.01 0.00 0.01 0.01 0.01 0.01 0.01 0.01 0.00 0.00 0.00 0.00 0.00 0.00 0.00 0.00 0.00 0.00 0.00 0.00 0.00 0.00 0.00 0.00 0.00 0.00 0.00 0.00 0.01 0.01 0.01 0.02 0.01
0.03 0.04 0.04 0.03 0.01 0.01 0.01 0.01 0.01 0.01 0.01 0.01 0.01 0.01 0.01 0.01 0.00 0.01 0.00 0.00 0.00 0.00 0.00 0.00 0.00 0.00 0.00 0.00 0.00 0.01 0.00 0.00 0.00 0.00 0.01 0.01 0.01 0.01 0.01 0.01 0.01 0.01 0.02 0.02
0.03 0.04 0.05 0.04 0.02 0.02 0.01 0.01 0.01 0.01 0.01 0.01 0.01 0.01 0.01 0.01 0.01 0.01 0.01 0.00 0.00 0.00 0.00 0.00 0.00 0.00 0.00 0.00 0.01 0.01 0.01 0.01 0.01 0.01 0.01 0.01 0.01 0.01 0.01 0.01 0.01 0.01 0.02 0.02
0.02 0.04 0.05 0.05 0.03 0.02 0.01 0.01 0.01 0.01 0.01 0.01 0.01 0.00 0.00 0.00 0.00 0.01 0.01 0.01 0.01 0.01 0.01 0.01 0.01 0.01 0.01 0.01 0.01 0.01 0.01 0.01 0.01 0.01 0.01 0.01 0.01 0.02 0.02 0.01 0.01 0.01 0.02 0.01
0.03 0.04 0.05 0.05 0.04 0.02 0.01 0.01 0.01 0.01 0.02 0.01 0.01 0.01 0.01 0.01 0.01 0.00 0.00 0.00 0.01 0.01 0.01 0.01 0.01 0.01 0.01 0.01 0.01 0.01 0.01 0.01 0.01 0.01 0.01 0.01 0.02 0.02 0.02 0.01 0.01 0.01 0.02 0.01
0.03 0.04 0.04 0.03 0.03 0.02 0.01 0.01 0.01 0.02 0.02 0.01 0.01 0.01 0.01 0.01 0.01 0.00 0.00 0.01 0.01 0.01 0.01 0.01 0.01 0.01 0.01 0.01 0.02 0.02 0.02 0.02 0.03 0.03 0.03 0.03 0.03 0.03 0.03 0.02 0.01 0.01 0.02 0.02
0.02 0.02 0.02 0.03 0.04 0.02 0.01 0.01 0.02 0.02 0.02 0.01 0.01 0.01 0.01 0.01 0.00 0.00 0.00 0.01 0.01 0.01 0.01 0.01 0.02 0.02 0.01 0.02 0.02 0.02 0.03 0.04 0.04 0.03 0.03 0.04 0.04 0.04 0.04 0.04 0.02 0.02 0.02 0.02
0.01 0.02 0.02 0.02 0.02 0.02 0.02 0.02 0.02 0.02 0.02 0.02 0.02 0.01 0.01 0.01 0.01 0.01 0.01 0.01 0.01 0.02 0.02 0.02 0.02 0.02 0.02 0.02 0.02 0.02 0.03 0.04 0.04 0.04 0.04 0.05 0.06 0.06 0.06 0.06 0.04 0.04 0.03 0.03
0.01 0.01 0.01 0.01 0.01 0.02 0.02 0.02 0.01 0.01 0.01 0.01 0.01 0.01 0.01 0.01 0.01 0.01 0.01 0.01 0.02 0.02 0.02 0.02 0.02 0.02 0.02 0.02 0.02 0.03 0.03 0.03 0.04 0.04 0.05 0.06 0.07 0.07 0.07 0.06 0.05 0.05 0.04 0.04
0.02 0.01 0.01 0.01 0.01 0.01 0.02 0.01 0.01 0.01 0.01 0.01 0.01 0.01 0.01 0.01 0.01 0.01 0.02 0.02 0.02 0.02 0.02 0.02 0.02 0.02 0.03 0.03 0.03 0.03 0.04 0.04 0.05 0.06 0.07 0.07 0.07 0.08 0.07 0.06 0.06 0.05 0.05 0.04
0.02 0.02 0.02 0.02 0.01 0.02 0.01 0.01 0.01 0.01 0.01 0.01 0.01 0.01 0.01 0.01 0.01 0.01 0.02 0.02 0.02 0.02 0.02 0.02 0.02 0.02 0.02 0.02 0.03 0.03 0.04 0.05 0.06 0.06 0.05 0.06 0.07 0.08 0.08 0.07 0.07 0.06 0.06 0.05
MSLP
1011.08 1011.05 1010.90 1010.68 1010.45 1010.28 1010.20 1010.23 1010.35 1010.53 1010.72 1010.89 1011.00 1011.06 1011.11 1011.18 1011.30 1011.53 1011.85 1012.26 1012.73 1013.19 1013.61 1013.94 1014.18 1014.35 1014.48 1014.63 1014.86 1015.20 1015.67 1016.26 1016.92 1017.61 1018.26 1018.82 1019.25 1019.56 1019.74 1019.85 1019.92 1019.99 1020.10 1020.26
1010.94 1010.83 1010.59 1010.32 1010.09 1009.97 1009.98 1010.13 1010.38 1010.66 1010.90 1011.07 1011.13 1011.10 1011.02 1010.96 1010.97 1011.12 1011.41 1011.84 1012.36 1012.92 1013.43 1013.86 1014.18 1014.39 1014.54 1014.68 1014.87 1015.17 1015.61 1016.18 1016.85 1017.57 1018.27 1018.90 1019.41 1019.79 1020.05 1020.22 1020.33 1020.42 1020.53 1020.69
1010.55 1010.39 1010.14 1009.88 1009.71 1009.68 1009.81 1010.09 1010.45 1010.81 1011.08 1011.22 1011.19 1011.03 1010.80 1010.58 1010.45 1010.50 1010.75 1011.18 1011.76 1012.41 1013.04 1013.59 1014.01 1014.30 1014.50 1014.66 1014.85 1015.12 1015.54 1016.09 1016.76 1017.50 1018.24 1018.93 1019.53 1020.00 1020.34 1020.58 1020.75 1020.89 1021.03 1021.19
1009.87 1009.72 1009.51 1009.33 1009.26 1009.37 1009.65 1010.06 1010.53 1010.94 1011.22 1011.29 1011.14 1010.83 1010.41 1010.02 1009.75 1009.69 1009.88 1010.32 1010.96 1011.70 1012.46 1013.14 1013.69 1014.09 1014.37 1014.58 1014.78 1015.06 1015.46 1016.01 1016.67 1017.42 1018.19 1018.94 1019.61 1020.16 1020.60 1020.93 1021.18 1021.38 1021.56 1021.73
1008.94 1008.85 1008.72 1008.66 1008.74 1009.01 1009.45 1010.00 1010.55 1011.00 1011.24 1011.23 1010.95 1010.46 1009.87 1009.31 1008.89 1008.73 1008.88 1009.33 1010.02 1010.86 1011.74 1012.57 1013.26 1013.78 1014.17 1014.45 1014.71 1015.01 1015.41 1015.94 1016.60 1017.35 1018.15 1018.94 1019.66 1020.30 1020.82 1021.25 1021.58 1021.86 1022.09 1022.30
1007.88 1007.84 1007.81 1007.89 1008.14 1008.58 1009.16 1009.83 1010.45 1010.90 1011.10 1010.99 1010.58 1009.94 1009.19 1008.48 1007.95 1007.71 1007.82 1008.28 1009.03 1009.96 1010.97 1011.93 1012.76 1013.42 1013.92 1014.30 1014.62 1014.96 1015.39 1015.92 1016.58 1017.33 1018.13 1018.94 1019.72 1020.42 1021.02 1021.53 1021.95 1022.30 1022.59 1022.84
1006.81 1006.81 1006.87 1007.08 1007.47 1008.04 1008.75 1009.50 1010.16 1010.60 1010.74 1010.54 1010.02 1009.26 1008.40 1007.59 1006.99 1006.71 1006.81 1007.29 1008.09 1009.11 1010.21 1011.29 1012.25 1013.03 1013.65 1014.13 1014.54 1014.94 1015.39 1015.94 1016.60 1017.35 1018.16 1018.99 1019.79 1020.53 1021.19 1021.77 1022.26 1022.68 1023.04 1023.33
1005.89 1005.89 1005.99 1006.28 1006.76 1007.42 1008.20 1008.99 1009.64 1010.05 1010.14 1009.87 1009.27 1008.45 1007.53 1006.69 1006.07 1005.80 1005.93 1006.44 1007.29 1008.37 1009.55 1010.72 1011.77 1012.66 1013.38 1013.97 1014.46 1014.93 1015.44 1016.02 1016.69 1017.44 1018.25 1019.08 1019.89 1020.66 1021.36 1021.98 1022.52 1023.00 1023.40 1023.74
1005.25 1005.18 1005.26 1005.56 1006.06 1006.74 1007.52 1008.29 1008.90 1009.26 1009.30 1008.98 1008.36 1007.53 1006.63 1005.83 1005.26 1005.05 1005.22 1005.79 1006.68 1007.80 1009.02 1010.23 1011.35 1012.32 1013.13 1013.80 1014.38 1014.93 1015.51 1016.14 1016.84 1017.61 1018.42 1019.24 1020.05 1020.81 1021.52 1022.16 1022.73 1023.23 1023.67 1024.05
1004.93 1004.75 1004.74 1004.97 1005.41 1006.03 1006.74 1007.43 1007.97 1008.27 1008.26 1007.93 1007.33 1006.55 1005.74 1005.05 1004.59 1004.47 1004.73 1005.35 1006.27 1007.40 1008.63 1009.85 1010.99 1012.00 1012.87 1013.62 1014.29 1014.94 1015.60 1016.29 1017.04 1017.83 1018.65 1019.46 1020.25 1021.00 1021.69 1022.32 1022.89 1023.40 1023.86 1024.26
1004.95 1004.60 1004.45 1004.53 1004.85 1005.34 1005.92 1006.49 1006.93 1007.15 1007.10 1006.79 1006.26 1005.59 1004.93 1004.39 1004.08 1004.09 1004.44 1005.11 1006.05 1007.16 1008.36 1009.56 1010.68 1011.69 1012.60 1013.42 1014.18 1014.92 1015.68 1016.46 1017.27 1018.10 1018.93 1019.73 1020.50 1021.21 1021.86 1022.46 1023.01 1023.52 1023.97 1024.39
1005.21 1004.67 1004.34 1004.26 1004.41 1004.73 1005.15 1005.57 1005.89 1006.04 1005.97 1005.69 1005.25 1004.74 1004.24 1003.89 1003.75 1003.90 1004.34 1005.05 1005.98 1007.06 1008.19 1009.32 1010.40 1011.40 1012.32 1013.19 1014.04 1014.87 1015.73 1016.60 1017.49 1018.37 1019.22 1020.02 1020.76 1021.43 1022.04 1022.60 1023.11 1023.60 1024.05 1024.47
1005.57 1004.87 1004.38 1004.12 1004.09 1004.24 1004.49 1004.77 1004.98 1005.06 1004.99 1004.77 1004.44 1004.08 1003.77 1003.60 1003.63 1003.90 1004.42 1005.15 1006.05 1007.06 1008.11 1009.16 1010.16 1011.13 1012.05 1012.96 1013.87 1014.80 1015.75 1016.72 1017.68 1018.61 1019.48 1020.28 1021.00 1021.64 1022.20 1022.72 1023.20 1023.66 1024.10 1024.53
1005.93 1005.10 1004.48 1004.09 1003.91 1003.92 1004.04 1004.19 1004.32 1004.37 1004.32 1004.16 1003.95 1003.74 1003.60 1003.59 1003.76 1004.13 1004.69 1005.41 1006.26 1007.18 1008.13 1009.08 1010.00 1010.91 1011.82 1012.75 1013.71 1014.71 1015.74 1016.79 1017.81 1018.79 1019.68 1020.49 1021.19 1021.80 1022.33 1022.82 1023.28 1023.72 1024.17 1024.61
1006.20 1005.31 1004.62 1004.15 1003.90 1003.81 1003.85 1003.95 1004.05 1004.09 1004.08 1004.00 1003.90 1003.82 1003.82 1003.93 1004.19 1004.62 1005.19 1005.88 1006.65 1007.47 1008.30 1009.14 1009.98 1010.83 1011.71 1012.64 1013.62 1014.66 1015.75 1016.84 1017.90 1018.90 1019.81 1020.61 1021.31 1021.90 1022.42 1022.89 1023.34 1023.79 1024.24 1024.70
1006.36 1005.48 1004.80 1004.33 1004.06 1003.97 1004.01 1004.11 1004.22 1004.31 1004.36 1004.37 1004.37 1004.39 1004.49 1004.68 1004.99 1005.42 1005.97 1006.59 1007.27 1007.98 1008.70 1009.43 1010.17 1010.95 1011.79 1012.69 1013.67 1014.72 1015.81 1016.91 1017.98 1018.98 1019.88 1020.68 1021.35 1021.94 1022.45 1022.92 1023.38 1023.85 1024.32 1024.80
1006.49 1005.69 1005.07 1004.67 1004.47 1004.45 1004.55 1004.71 1004.90 1005.07 1005.20 1005.30 1005.39 1005.49 1005.64 1005.87 1006.18 1006.59 1007.07 1007.61 1008.19 1008.79 1009.40 1010.03 1010.68 1011.38 1012.15 1013.00 1013.94 1014.95 1016.00 1017.07 1018.10 1019.06 1019.93 1020.70 1021.36 1021.93 1022.44 1022.93 1023.40 1023.89 1024.38 1024.89
1006.73 1006.04 1005.55 1005.27 1005.19 1005.29 1005.50 1005.78 1006.08 1006.36 1006.59 1006.78 1006.94 1007.09 1007.27 1007.49 1007.78 1008.13 1008.53 1008.98 1009.46 1009.95 1010.46 1010.99 1011.56 1012.18 1012.87 1013.65 1014.51 1015.43 1016.40 1017.38 1018.33 1019.22 1020.02 1020.74 1021.36 1021.92 1022.42 1022.91 1023.40 1023.90 1024.41 1024.93
1007.26 1006.70 1006.35 1006.21 1006.28 1006.52 1006.87 1007.29 1007.72 1008.11 1008.44 1008.71 1008.93 1009.11 1009.29 1009.48 1009.71 1009.99 1010.31 1010.66 1011.05 1011.45 1011.87 1012.33 1012.82 1013.36 1013.97 1014.65 1015.40 1016.21 1017.05 1017.90 1018.73 1019.51 1020.22 1020.86 1021.43 1021.95 1022.43 1022.90 1023.38 1023.87 1024.37 1024.86
1008.22 1007.79 1007.58 1007.58 1007.78 1008.15 1008.63 1009.18 1009.72 1010.21 1010.63 1010.96 1011.22 1011.41 1011.57 1011.72 1011.89 1012.09 1012.33 1012.60 1012.91 1013.24 1013.60 1013.99 1014.42 1014.88 1015.40 1015.98 1016.60 1017.27 1017.97 1018.66 1019.34 1019.98 1020.58 1021.12 1021.61 1022.07 1022.50 1022.93 1023.37 1023.81 1024.26 1024.69
1009.72 1009.41 1009.30 1009.40 1009.70 1010.16 1010.73 1011.36 1011.98 1012.54 1013.01 1013.38 1013.65 1013.83 1013.97 1014.07 1014.18 1014.32 1014.49 1014.70 1014.95 1015.23 1015.55 1015.89 1016.26 1016.66 1017.09 1017.56 1018.06 1018.58 1019.11 1019.65 1020.17 1020.66 1021.12 1021.55 1021.94 1022.31 1022.67 1023.02 1023.38 1023.73 1024.08 1024.41
1011.78 1011.56 1011.51 1011.66 1011.99 1012.49 1013.09 1013.74 1014.38 1014.96 1015.44 1015.82 1016.08 1016.25 1016.35 1016.41 1016.47 1016.55 1016.67 1016.84 1017.05 1017.29 1017.58 1017.89 1018.22 1018.56 1018.92 1019.28 1019.66 1020.03 1020.41 1020.79 1021.15 1021.50 1021.82 1022.13 1022.41 1022.68 1022.93 1023.18 1023.41 1023.64 1023.85 1024.05
1014.33 1014.16 1014.13 1014.27 1014.58 1015.04 1015.60 1016.21 1016.81 1017.36 1017.82 1018.16 1018.40 1018.54 1018.60 1018.63 1018.65 1018.69 1018.77 1018.90 1019.09 1019.31 1019.58 1019.86 1020.15 1020.44 1020.72 1021.00 1021.26 1021.51 1021.76 1021.99 1022.21 1022.42 1022.62 1022.81 1022.98 1023.13 1023.27 1023.38 1023.48 1023.55 1023.60 1023.63
1017.21 1017.06 1017.01 1017.10 1017.34 1017.70 1018.16 1018.67 1019.19 1019.66 1020.05 1020.34 1020.53 1020.63 1020.66 1020.66 1020.65 1020.66 1020.71 1020.82 1020.98 1021.18 1021.42 1021.67 1021.92 1022.16 1022.37 1022.56 1022.73 1022.87 1023.00 1023.12 1023.22 1023.32 1023.41 1023.49 1023.56 1023.61 1023.62 1023.60 1023.55 1023.46 1023.34 1023.20
1020.22 1020.07 1019.98 1019.99 1020.10 1020.34 1020.66 1021.03 1021.42 1021.79 1022.09 1022.32 1022.45 1022.51 1022.51 1022.48 1022.44 1022.43 1022.45 1022.53 1022.66 1022.83 1023.03 1023.23 1023.43 1023.61 1023.75 1023.86 1023.94 1023.99 1024.02 1024.04 1024.06 1024.07 1024.08 1024.08 1024.06 1024.00 1023.91 1023.78 1023.59 1023.36 1023.08 1022.78
1023.14 1022.98 1022.83 1022.74 1022.73 1022.82 1022.98 1023.21 1023.47 1023.71 1023.92 1024.07 1024.16 1024.17 1024.14 1024.08 1024.02 1023.98 1023.98 1024.02 1024.10 1024.22 1024.36 1024.49 1024.62 1024.72 1024.78 1024.80 1024.79 1024.76 1024.71 1024.66 1024.60 1024.55 1024.50 1024.43 1024.35 1024.23 1024.06 1023.84 1023.55 1023.20 1022.81 1022.39
Thickness
5532 5526 5523 5525 5526 5530 5526 5524 5524 5526 5525 5523 5522 5525 5532 5533 5529 5529 5529 5529 5531 5532 5532 5531 5532 5531 5531 5531 5531 5530 5530 5529 5529 5529 5529 5529 5529 5529 5530 5532 5534 5535 5537 5538
5515 5513 5516 5515 5515 5514 5513 5511 5509 5510 5512 5509 5505 5509 5518 5520 5520 5521 5521 5519 5520 5519 5518 5519 5519 5518 5518 5518 5518 5518 5517 5517 5517 5517 5517 5517 5517 5518 5518 5520 5522 5523 5525 5526
5507 5506 5506 5506 5503 5503 5503 5499 5499 5497 5495 5492 5491 5503 5509 5511 5509 5508 5508 5509 5508 5508 5507 5506 5506 5505 5505 5505 5505 5506 5505 5505 5504 5504 5505 5505 5505 5506 5506 5507 5508 5510 5512 5513
5489 5491 5494 5494 5492 5491 5492 5492 5490 5485 5477 5472 5476 5478 5499 5498 5495 5497 5495 5493 5493 5494 5494 5494 5494 5493 5493 5493 5493 5492 5492 5492 5492 5491 5491 5492 5492 5491 5492 5493 5494 5497 5499 5501
5477 5477 5480 5481 5481 5479 5476 5473 5470 5467 5460 5451 5452 5454 5481 5482 5486 5490 5486 5483 5482 5481 5481 5482 5482 5482 5481 5480 5479 5479 5479 5479 5478 5478 5478 5478 5478 5478 5478 5479 5481 5483 5486 5488
5462 5463 5464 5465 5465 5465 5459 5455 5448 5438 5438 5444 5447 5444 5467 5469 5479 5482 5478 5473 5471 5470 5469 5469 5469 5468 5467 5466 5466 5465 5465 5465 5465 5464 5464 5464 5464 5464 5465 5466 5467 5469 5472 5475
5450 5451 5450 5451 5450 5448 5448 5443 5435 5431 5423 5436 5435 5438 5457 5467 5467 5469 5467 5462 5459 5458 5456 5455 5455 5454 5453 5452 5452 5452 5452 5452 5452 5451 5451 5451 5451 5451 5452 5453 5454 5455 5458 5461
5433 5436 5437 5437 5439 5435 5432 5437 5432 5426 5421 5424 5417 5425 5449 5452 5450 5450 5449 5448 5447 5445 5444 5444 5443 5442 5441 5439 5438 5438 5438 5438 5439 5438 5438 5438 5438 5438 5439 5440 5441 5442 5445 5448
5422 5424 5423 5425 5427 5429 5421 5419 5419 5409 5398 5400 5409 5412 5429 5440 5439 5437 5436 5435 5433 5433 5432 5432 5431 5430 5429 5427 5426 5425 5425 5425 5425 5424 5424 5425 5425 5426 5426 5427 5428 5430 5432 5435
5413 5406 5407 5408 5415 5414 5412 5406 5399 5402 5404 5406 5410 5407 5424 5433 5434 5430 5426 5423 5421 5420 5419 5418 5418 5417 5416 5415 5414 5412 5412 5412 5412 5411 5411 5412 5412 5412 5414 5415 5416 5417 5420 5422
5399 5393 5390 5392 5392 5395 5394 5394 5393 5389 5390 5396 5398 5418 5420 5420 5421 5418 5414 5410 5408 5407 5407 5406 5405 5404 5403 5402 5401 5400 5399 5399 5399 5399 5398 5398 5399 5400 5401 5402 5403 5405 5407 5409
5386 5380 5376 5380 5379 5379 5382 5382 5380 5387 5380 5369 5380 5405 5411 5403 5402 5399 5397 5397 5395 5395 5394 5393 5392 5391 5390 5388 5388 5387 5387 5387 5387 5386 5386 5386 5386 5387 5388 5389 5390 5392 5394 5396
5376 5370 5369 5375 5369 5362 5363 5363 5363 5368 5367 5358 5368 5396 5396 5387 5387 5386 5384 5383 5383 5383 5383 5381 5379 5378 5377 5376 5375 5375 5374 5374 5374 5374 5373 5373 5374 5374 5375 5377 5378 5379 5381 5384
5374 5363 5369 5376 5377 5364 5355 5355 5352 5356 5360 5354 5361 5385 5391 5385 5381 5377 5374 5372 5371 5371 5371 5370 5368 5366 5365 5364 5364 5363 5363 5362 5362 5361 5361 5361 5362 5362 5363 5364 5365 5367 5369 5372
5360 5354 5350 5354 5359 5356 5357 5357 5349 5350 5357 5361 5371 5370 5382 5377 5370 5367 5364 5362 5362 5361 5361 5360 5358 5356 5354 5353 5353 5353 5352 5351 5350 5349 5349 5349 5350 5350 5350 5351 5353 5355 5357 5360
5344 5341 5339 5342 5348 5346 5350 5354 5351 5350 5352 5351 5356 5362 5367 5360 5356 5354 5353 5353 5352 5352 5351 5350 5348 5346 5345 5344 5343 5342 5341 5339 5338 5338 5338 5338 5338 5338 5339 5339 5340 5342 5344 5347
5331 5329 5332 5336 5331 5337 5342 5347 5344 5340 5341 5344 5351 5361 5353 5349 5348 5346 5344 5343 5343 5343 5341 5339 5338 5336 5335 5333 5332 5330 5329 5328 5327 5327 5327 5327 5327 5327 5327 5328 5328 5330 5332 5335
5324 5322 5319 5320 5322 5327 5352 5340 5340 5336 5334 5334 5339 5343 5340 5338 5336 5334 5333 5333 5333 5332 5330 5328 5326 5325 5323 5321 5320 5319 5318 5317 5316 5316 5316 5316 5316 5316 5316 5316 5316 5318 5319 5322
5318 5318 5313 5311 5313 5323 5335 5331 5322 5322 5326 5325 5326 5328 5325 5322 5324 5326 5326 5324 5322 5320 5318 5316 5314 5313 5312 5310 5308 5307 5306 5306 5306 5306 5305 5305 5304 5305 5305 5305 5306 5306 5307 5310
5305 5307 5306 5302 5308 5315 5330 5319 5315 5317 5319 5322 5316 5316 5312 5313 5316 5321 5316 5312 5310 5308 5305 5304 5303 5301 5300 5299 5297 5296 5296 5295 5296 5296 5295 5295 5295 5295 5296 5296 5296 5297 5298 5301
5293 5291 5292 5293 5295 5307 5310 5303 5308 5313 5320 5311 5306 5305 5301 5301 5304 5303 5301 5300 5298 5296 5294 5292 5291 5289 5288 5287 5286 5286 5285 5285 5286 5285 5286 5286 5286 5286 5287 5287 5288 5288 5290 5292
5286 5284 5281 5282 5286 5302 5297 5295 5298 5302 5298 5295 5294 5293 5291 5290 5290 5289 5289 5288 5286 5284 5283 5281 5280 5278 5277 5276 5275 5275 5275 5275 5275 5276 5276 5277 5277 5277 5279 5279 5280 5281 5281 5283
5277 5283 5284 5287 5295 5292 5284 5287 5287 5285 5284 5284 5283 5282 5281 5279 5279 5279 5277 5275 5274 5273 5271 5269 5268 5267 5266 5265 5264 5264 5265 5265 5265 5266 5267 5268 5269 5270 5271 5272 5273 5274 5274 5275
5268 5264 5269 5271 5279 5277 5275 5274 5274 5274 5274 5274 5273 5271 5270 5269 5268 5267 5266 5264 5263 5262 5260 5258 5257 5256 5255 5255 5255 5254 5254 5255 5255 5256 5258 5260 5261 5262 5264 5266 5268 5268 5268 5270
5263 5256 5259 5263 5267 5267 5271 5268 5267 5265 5264 5264 5263 5261 5260 5258 5257 5255 5253 5252 5251 5251 5249 5247 5246 5245 5245 5245 5245 5245 5245 5246 5246 5247 5249 5251 5253 5255 5257 5259 5260 5262 5264 5265
5252 5251 5255 5267 5266 5261 5266 5264 5260 5258 5258 5256 5254 5252 5250 5249 5246 5244 5242 5241 5239 5239 5238 5238 5237 5237 5236 5236 5236 5237 5237 5238 5238 5240 5241 5242 5244 5246 5248 5251 5254 5256 5258 5261